GW3397 Weather Reports


Display with metric or nautical units.
time (UTC)temp
F
wind
direction
speed
MPH
gust
MPH
rain 1hr
in
rain 24hr
in
rain mn
in
humidity
%
barometer
mb
20260831034550 63 292 2.0 3.0 0.00 0.03 0.03 98 1025.4
20260831034046 63 286 1.0 1.0 0.00 0.03 0.03 98 1025.4
20260831033541 64 289 1.0 2.0 0.00 0.03 0.03 98 1025.4
20260831033036 64 257 0.0 0.0 0.00 0.03 0.03 98 1025.5
20260831032535 64 288 0.0 0.0 0.00 0.03 0.03 98 1025.5
20260831032031 64 293 0.0 1.0 0.00 0.03 0.03 98 1025.6
20260831031530 64 305 0.0 0.0 0.00 0.03 0.03 98 1025.6
20260831031025 64 303 1.0 1.0 0.00 0.03 0.03 98 1025.6
20260831030524 64 297 0.0 1.0 0.00 0.03 0.03 98 1025.5
20260831030023 64 332 0.0 0.0 0.00 0.03 0.03 98 1025.5
20260831025516 63 302 0.0 0.0 0.00 0.03 0.03 98 1025.6
20260831025011 63 301 0.0 0.0 0.00 0.03 0.03 98 1025.4
20260831024506 63 337 0.0 0.0 0.00 0.03 0.03 98 1025.5
20260831024000 63 342 0.0 0.0 0.00 0.03 0.03 98 1025.5
20260831023458 63 324 0.0 0.0 0.00 0.03 0.03 98 1025.5
20260831022953 63 272 0.0 0.0 0.00 0.03 0.03 98 1025.2
20260831022452 63 285 0.0 0.0 0.00 0.03 0.03 98 1025.3
20260831021948 63 353 0.0 0.0 0.00 0.03 0.03 98 1025.3
20260831021446 63 345 0.0 0.0 0.00 0.03 0.03 98 1025.3
20260831020943 63 286 0.0 0.0 0.00 0.03 0.03 98 1025.1
20260831020442 63 274 0.0 0.0 0.00 0.03 0.03 98 1025.2
20260831015937 63 208 0.0 0.0 0.00 0.03 0.03 98 1025.0
20260831015433 63 257 0.0 0.0 0.00 0.03 0.03 98 1025.0
20260831014928 63 220 0.0 1.0 0.00 0.03 0.03 98 1025.1
20260831014423 63 210 1.0 1.0 0.00 0.03 0.03 98 1025.0
20260831013919 63 211 0.0 1.0 0.00 0.03 0.03 98 1025.0
20260831013414 63 226 1.0 1.0 0.00 0.03 0.03 97 1025.1
20260831012908 63 246 0.0 1.0 0.00 0.03 0.03 97 1025.2
20260831012403 63 260 0.0 0.0 0.00 0.03 0.03 97 1025.1
20260831011857 63 270 0.0 0.0 0.00 0.03 0.03 97 1025.4
20260831011352 63 285 0.0 0.0 0.00 0.03 0.03 97 1025.2
20260831010848 63 325 0.0 1.0 0.00 0.03 0.03 97 1025.2
20260831010348 63 306 0.0 1.0 0.00 0.03 0.03 97 1025.0
20260831005844 64 300 1.0 1.0 0.00 0.03 0.03 97 1025.1
20260831005339 64 300 1.0 1.0 0.00 0.03 0.03 97 1025.0
20260831004834 64 300 1.0 1.0 0.00 0.03 0.03 97 1025.0
20260831004330 64 301 1.0 2.0 0.00 0.03 0.03 97 1025.1
20260831003825 64 317 0.0 1.0 0.00 0.03 0.03 97 1024.9
20260831003321 64 327 1.0 2.0 0.00 0.03 0.03 97 1024.7
20260831002820 64 338 1.0 2.0 0.00 0.03 0.03 97 1024.6
20260831002314 64 348 3.0 3.0 0.00 0.03 0.03 97 1024.3
20260831001810 64 310 2.0 2.0 0.00 0.03 0.03 97 1024.6
20260831001305 64 291 2.0 3.0 0.00 0.03 0.03 97 1024.3
20260831000803 64 283 1.0 3.0 0.00 0.03 0.03 97 1024.3
20260831000303 64 338 2.0 2.0 0.00 0.03 0.03 97 1024.0
20260830235801 64 319 2.0 2.0 0.00 0.03 0.03 97 1024.0
20260830235256 64 332 4.0 6.0 0.00 0.03 0.03 97 1024.0
20260830234751 64 309 0.0 1.0 0.00 0.03 0.03 97 1023.8
20260830234247 64 336 0.0 0.0 0.00 0.03 0.03 96 1023.8
20260830233742 64 336 0.0 0.0 0.00 0.03 0.03 96 1023.9
20260830233237 64 336 0.0 0.0 0.00 0.03 0.03 96 1023.6
20260830232732 64 336 0.0 0.0 0.00 0.03 0.03 96 1023.9
20260830232229 64 323 1.0 1.0 0.00 0.03 0.03 96 1023.6
20260830231725 64 0 1.0 2.0 0.00 0.03 0.03 96 1023.8
20260830231224 64 350 1.0 2.0 0.00 0.03 0.03 96 1023.6
20260830230719 64 336 1.0 1.0 0.00 0.03 0.03 96 1023.6
20260830230214 64 336 0.0 0.0 0.00 0.03 0.03 96 1023.6
20260830225709 64 301 1.0 1.0 0.00 0.03 0.03 96 1023.6
20260830225204 64 339 1.0 1.0 0.00 0.03 0.03 96 1023.4
20260830224703 64 338 1.0 2.0 0.00 0.03 0.03 96 1023.3
20260830224159 64 347 0.0 1.0 0.00 0.03 0.03 96 1023.5
20260830223655 64 313 0.0 1.0 0.00 0.03 0.03 96 1023.5
20260830223155 64 313 1.0 1.0 0.00 0.03 0.03 96 1023.6
20260830222650 64 258 1.0 2.0 0.00 0.03 0.03 96 1023.9
20260830222146 64 278 1.0 2.0 0.00 0.03 0.03 96 1023.9
20260830221641 64 269 0.0 0.0 0.00 0.03 0.03 96 1024.0
20260830221137 64 306 0.0 0.0 0.00 0.03 0.03 96 1024.0
20260830220632 64 286 1.0 1.0 0.00 0.03 0.03 96 1023.8
20260830220126 64 307 1.0 1.0 0.00 0.03 0.03 96 1023.9
20260830215625 64 308 0.0 0.0 0.00 0.03 0.03 96 1024.0
20260830215120 64 296 1.0 1.0 0.00 0.03 0.03 96 1023.9
20260830214615 63 297 1.0 5.0 0.00 0.03 0.03 95 1024.1
20260830214109 64 337 1.0 1.0 0.07 0.03 0.03 95 1024.0
20260830213603 64 326 3.0 3.0 0.00 0.02 0.02 95 1024.1
20260830213059 64 305 2.0 5.0 0.05 0.02 0.02 95 1024.2
20260830212554 64 336 3.0 5.0 0.07 0.01 0.01 95 1024.2
20260830212049 64 265 3.0 5.0 0.07 0.01 0.01 94 1024.4
20260830211544 64 285 3.0 5.0 0.00 0.00 0.00 94 1024.2
20260830211043 64 307 5.0 9.0 0.00 0.00 0.00 94 1024.2
20260830210538 66 290 5.0 11.0 0.00 0.00 0.00 93 1024.0
20260830210032 67 337 5.0 6.0 0.00 0.00 0.00 90 1024.2
20260830205530 68 326 5.0 6.0 0.00 0.00 0.00 86 1023.9
20260830205026 69 235 4.0 7.0 0.00 0.00 0.00 84 1023.5
20260830204525 69 318 7.0 8.0 0.00 0.00 0.00 82 1023.6
20260830204024 70 273 8.0 11.0 0.00 0.00 0.00 82 1023.9
20260830203520 71 348 3.0 7.0 0.00 0.00 0.00 81 1023.8
20260830203010 71 304 4.0 7.0 0.00 0.00 0.00 80 1023.2
20260830202504 71 312 3.0 5.0 0.00 0.00 0.00 79 1023.5
20260830202001 72 233 3.0 6.0 0.00 0.00 0.00 78 1023.0
20260830201459 71 295 4.0 6.0 0.00 0.00 0.00 77 1022.8
20260830200954 71 270 3.0 5.0 0.00 0.00 0.00 78 1023.5
20260830200449 71 288 1.0 5.0 0.00 0.00 0.00 81 1023.3
20260830195948 71 309 3.0 5.0 0.00 0.00 0.00 78 1023.1
20260830195444 72 303 3.0 3.0 0.00 0.00 0.00 78 1022.9
20260830194942 72 312 1.0 5.0 0.00 0.00 0.00 77 1023.0
20260830194441 72 300 3.0 5.0 0.00 0.00 0.00 78 1023.2
20260830193936 72 297 0.0 1.0 0.00 0.00 0.00 79 1023.1
20260830193435 73 252 0.0 1.0 0.00 0.00 0.00 78 1023.1
20260830192930 73 259 0.0 1.0 0.00 0.00 0.00 78 1023.0
20260830192425 73 279 2.0 5.0 0.00 0.00 0.00 75 1023.0
20260830191920 74 249 2.0 3.0 0.00 0.00 0.00 75 1023.2
20260830191415 74 287 0.0 3.0 0.00 0.00 0.00 74 1023.2
20260830190911 74 303 3.0 5.0 0.00 0.00 0.00 73 1023.3
20260830190406 74 297 2.0 3.0 0.00 0.00 0.00 74 1023.4
20260830185905 74 290 1.0 2.0 0.00 0.00 0.00 74 1023.4
20260830185400 74 279 0.0 3.0 0.00 0.00 0.00 74 1023.6
20260830184854 74 280 2.0 2.0 0.00 0.00 0.00 75 1023.3
20260830184348 74 313 4.0 5.0 0.00 0.00 0.00 72 1023.4
20260830183842 74 317 5.0 8.0 0.00 0.00 0.00 70 1023.4
20260830183336 75 285 2.0 3.0 0.00 0.00 0.00 73 1023.2
20260830182832 75 273 2.0 5.0 0.00 0.00 0.00 71 1023.3
20260830182328 75 199 1.0 2.0 0.00 0.00 0.00 67 1023.5
20260830181824 75 292 2.0 5.0 0.00 0.00 0.00 69 1023.5
20260830181319 75 274 0.0 2.0 0.00 0.00 0.00 71 1023.6
20260830180818 75 290 3.0 7.0 0.00 0.00 0.00 70 1024.0
20260830180313 75 248 1.0 2.0 0.00 0.00 0.00 70 1023.9
20260830175807 76 207 1.0 7.0 0.00 0.00 0.00 74 1023.9
20260830175305 75 275 0.0 5.0 0.00 0.00 0.00 71 1023.9
20260830174802 75 262 2.0 3.0 0.00 0.00 0.00 73 1024.0
20260830174257 75 222 0.0 6.0 0.00 0.00 0.00 73 1024.0
20260830173752 75 224 2.0 3.0 0.00 0.00 0.00 72 1023.9
20260830173247 74 322 2.0 2.0 0.00 0.00 0.00 73 1023.8
20260830172744 74 304 3.0 7.0 0.00 0.00 0.00 71 1024.1
20260830172240 74 283 5.0 6.0 0.00 0.00 0.00 72 1024.1
20260830171735 74 310 5.0 7.0 0.00 0.00 0.00 74 1024.3
20260830171230 74 300 3.0 3.0 0.00 0.00 0.00 74 1024.2
20260830170725 74 284 4.0 5.0 0.00 0.00 0.00 73 1024.2
20260830170223 74 325 2.0 5.0 0.00 0.00 0.00 72 1024.3
20260830165723 74 292 3.0 5.0 0.00 0.00 0.00 74 1024.4
20260830165219 74 281 1.0 5.0 0.00 0.00 0.00 75 1024.5
20260830164715 73 311 5.0 6.0 0.00 0.00 0.00 72 1024.5
20260830164211 73 210 2.0 6.0 0.00 0.00 0.00 72 1024.4
20260830163707 74 246 2.0 7.0 0.00 0.00 0.00 72 1024.3
20260830163203 74 287 3.0 3.0 0.00 0.00 0.00 74 1024.6
20260830162657 74 331 2.0 5.0 0.00 0.00 0.00 73 1024.5
20260830162153 74 261 3.0 3.0 0.00 0.00 0.00 72 1024.6
20260830161648 73 291 2.0 5.0 0.00 0.00 0.00 72 1024.8
20260830161142 73 270 4.0 5.0 0.00 0.00 0.00 73 1024.7
20260830160640 74 287 2.0 3.0 0.00 0.00 0.00 71 1024.8
20260830160138 74 288 1.0 5.0 0.00 0.00 0.00 72 1024.9
20260830155635 74 304 2.0 5.0 0.00 0.00 0.00 74 1024.8
20260830155131 74 277 2.0 2.0 0.00 0.00 0.00 71 1024.9
20260830154626 74 312 2.0 5.0 0.00 0.00 0.00 72 1025.0
20260830154122 73 317 2.0 3.0 0.00 0.00 0.00 71 1025.1
20260830153618 74 323 3.0 3.0 0.00 0.00 0.00 71 1025.3
20260830153118 73 281 1.0 3.0 0.00 0.00 0.00 72 1025.2
20260830152617 72 280 3.0 5.0 0.00 0.00 0.00 73 1025.3
20260830152116 71 327 4.0 5.0 0.00 0.00 0.00 73 1025.3
20260830151611 71 300 2.0 3.0 0.00 0.00 0.00 76 1025.3
20260830151106 71 317 2.0 3.0 0.00 0.00 0.00 76 1025.6
20260830150601 71 261 0.0 1.0 0.00 0.00 0.00 80 1025.2
20260830150055 69 16 1.0 3.0 0.00 0.00 0.00 82 1025.4
20260830145549 70 43 2.0 3.0 0.00 0.00 0.00 79 1025.5
20260830145045 69 104 2.0 3.0 0.00 0.00 0.00 78 1025.6
20260830144540 69 19 3.0 5.0 0.00 0.00 0.00 82 1025.5
20260830144036 68 22 3.0 3.0 0.00 0.00 0.00 84 1025.5
20260830143532 68 11 2.0 3.0 0.00 0.00 0.00 85 1025.3
20260830143030 67 293 0.0 1.0 0.00 0.00 0.00 88 1025.6
20260830142525 67 7 3.0 3.0 0.00 0.00 0.00 88 1025.3
20260830142020 66 42 2.0 2.0 0.00 0.00 0.00 88 1025.2
20260830141516 66 44 2.0 2.0 0.00 0.00 0.00 88 1025.5
20260830141015 65 33 0.0 3.0 0.00 0.00 0.00 90 1025.5
20260830140515 66 10 0.0 2.0 0.00 0.00 0.00 89 1025.5
20260830140011 66 34 1.0 2.0 0.00 0.00 0.00 86 1025.6
20260830135506 65 338 1.0 2.0 0.00 0.00 0.00 87 1025.5
20260830135001 66 50 3.0 3.0 0.00 0.00 0.00 86 1025.3
20260830134457 66 38 1.0 2.0 0.00 0.00 0.00 87 1025.5
20260830133952 65 22 1.0 1.0 0.00 0.00 0.00 88 1025.7
20260830133448 64 87 1.0 1.0 0.00 0.00 0.00 90 1025.6
20260830132943 64 26 1.0 2.0 0.00 0.00 0.00 90 1025.7
20260830132439 63 46 2.0 2.0 0.00 0.00 0.00 91 1025.8
20260830131938 63 43 1.0 2.0 0.00 0.00 0.00 92 1025.6
20260830131437 63 72 1.0 1.0 0.00 0.00 0.00 93 1025.9
20260830130932 63 34 0.0 0.0 0.00 0.00 0.00 94 1025.7
20260830130428 62 110 2.0 2.0 0.00 0.00 0.00 94 1025.7
20260830125926 62 30 1.0 2.0 0.00 0.00 0.00 94 1026.0
20260830125423 62 81 1.0 1.0 0.00 0.00 0.00 94 1025.9
20260830124920 62 21 0.0 0.0 0.00 0.00 0.00 94 1025.8
20260830124415 62 351 1.0 1.0 0.00 0.00 0.00 94 1026.0
20260830123912 61 53 0.0 1.0 0.00 0.00 0.00 94 1025.8
20260830123409 61 27 1.0 1.0 0.00 0.00 0.00 94 1026.3
20260830122906 61 257 0.0 1.0 0.00 0.00 0.00 94 1026.1
20260830122401 61 255 1.0 3.0 0.00 0.00 0.00 94 1026.1
20260830121856 61 38 1.0 2.0 0.00 0.00 0.00 93 1026.3
20260830121355 62 24 3.0 3.0 0.00 0.00 0.00 93 1026.4
20260830120850 62 293 0.0 1.0 0.00 0.00 0.00 93 1026.3
20260830120346 61 44 2.0 2.0 0.00 0.00 0.00 93 1026.1
20260830115842 62 351 3.0 5.0 0.00 0.00 0.00 91 1026.0
20260830115338 63 14 1.0 3.0 0.00 0.00 0.00 90 1026.1
20260830114833 62 70 0.0 0.0 0.00 0.00 0.00 89 1025.9
20260830114330 62 79 0.0 2.0 0.00 0.00 0.00 89 1025.9
20260830113825 61 318 0.0 2.0 0.00 0.00 0.00 90 1026.3
20260830113320 60 306 1.0 1.0 0.00 0.00 0.00 92 1026.2
20260830112816 59 57 1.0 1.0 0.00 0.00 0.00 94 1026.4
20260830112311 58 275 0.0 0.0 0.00 0.00 0.00 95 1026.4
20260830111807 58 76 0.0 0.0 0.00 0.00 0.00 95 1026.4
20260830111303 58 15 0.0 0.0 0.00 0.00 0.00 95 1026.6
20260830110802 57 8 1.0 1.0 0.00 0.00 0.00 95 1026.3
20260830110259 57 81 1.0 1.0 0.00 0.00 0.00 95 1026.4
20260830105757 57 35 0.0 1.0 0.00 0.00 0.00 95 1026.3
20260830105253 57 2 0.0 0.0 0.00 0.00 0.00 95 1026.2
20260830104744 57 325 0.0 1.0 0.00 0.00 0.00 94 1026.4
20260830104241 57 89 0.0 0.0 0.00 0.00 0.00 95 1026.3
20260830103740 57 293 0.0 1.0 0.00 0.00 0.00 95 1026.3
20260830103236 57 304 1.0 1.0 0.00 0.00 0.00 94 1026.3
20260830102733 57 36 0.0 0.0 0.00 0.00 0.00 95 1026.3
20260830102230 57 36 0.0 0.0 0.00 0.00 0.00 95 1026.3
20260830101726 57 36 0.0 0.0 0.00 0.00 0.00 95 1026.2
20260830101221 57 358 0.0 0.0 0.00 0.00 0.00 95 1026.2
20260830100714 57 305 0.0 0.0 0.00 0.00 0.00 95 1026.2
20260830100208 57 5 0.0 0.0 0.00 0.00 0.00 95 1026.4
20260830095702 57 5 0.0 0.0 0.00 0.00 0.00 95 1026.3
20260830095158 57 351 0.0 0.0 0.00 0.00 0.00 95 1026.3
20260830094654 57 252 1.0 1.0 0.00 0.00 0.00 95 1026.4
20260830094149 57 42 0.0 0.0 0.00 0.00 0.00 95 1026.5
20260830093644 57 42 0.0 0.0 0.00 0.00 0.00 95 1026.4
20260830093141 57 335 0.0 0.0 0.00 0.00 0.00 95 1026.6
20260830092635 57 335 0.0 0.0 0.00 0.00 0.00 95 1026.5
20260830092132 57 15 3.0 5.0 0.00 0.00 0.00 95 1026.5
20260830091627 57 260 1.0 1.0 0.00 0.00 0.00 95 1026.4
20260830091126 56 45 0.0 1.0 0.00 0.00 0.00 95 1026.2
20260830090621 57 330 0.0 0.0 0.00 0.00 0.00 95 1026.2
20260830090121 56 304 0.0 1.0 0.00 0.00 0.00 95 1026.4
20260830085621 56 312 0.0 0.0 0.00 0.00 0.00 95 1026.4
20260830085117 58 341 1.0 1.0 0.00 0.00 0.00 94 1026.6
20260830084613 58 341 1.0 1.0 0.00 0.00 0.00 94 1026.3
20260830084112 58 341 1.0 1.0 0.00 0.00 0.00 94 1026.4
20260830083609 58 341 1.0 1.0 0.00 0.00 0.00 94 1026.4
20260830083109 58 341 1.0 1.0 0.00 0.00 0.00 94 1026.4
20260830082608 58 341 1.0 1.0 0.00 0.00 0.00 94 1026.5
20260830082104 58 341 1.0 1.0 0.00 0.00 0.00 94 1026.4
20260830081600 58 341 1.0 1.0 0.00 0.00 0.00 94 1026.5
20260830081059 58 341 1.0 1.0 0.00 0.00 0.00 94 1026.4
20260830080554 58 94 0.0 0.0 0.00 0.00 0.00 94 1026.6
20260830080049 57 105 0.0 0.0 0.00 0.00 0.00 94 1026.8
20260830075544 57 84 0.0 0.0 0.00 0.00 0.00 94 1026.4
20260830075039 58 91 0.0 0.0 0.00 0.00 0.00 94 1026.7
20260830074535 57 206 0.0 0.0 0.00 0.00 0.00 93 1026.6
20260830074031 57 212 0.0 1.0 0.00 0.00 0.00 93 1026.6
20260830073526 57 255 0.0 0.0 0.00 0.00 0.00 94 1026.7
20260830073022 57 218 0.0 1.0 0.00 0.00 0.00 94 1026.7
20260830072517 57 169 0.0 1.0 0.00 0.00 0.00 94 1026.5
20260830072017 57 96 0.0 0.0 0.00 0.00 0.00 94 1026.5
20260830071513 56 87 0.0 0.0 0.00 0.00 0.00 94 1026.4
20260830071009 56 127 0.0 0.0 0.00 0.00 0.00 94 1026.4
20260830070506 56 67 0.0 1.0 0.00 0.00 0.00 94 1026.4
20260830070005 56 63 0.0 0.0 0.00 0.00 0.00 94 1026.6
20260830065504 56 83 0.0 1.0 0.00 0.00 0.00 94 1026.5
20260830065002 56 107 1.0 1.0 0.00 0.00 0.00 94 1026.2
20260830064458 56 90 0.0 0.0 0.00 0.00 0.00 94 1026.3
20260830063953 56 96 0.0 2.0 0.00 0.00 0.00 94 1026.1
20260830063452 56 127 2.0 2.0 0.00 0.00 0.00 94 1026.4
20260830062951 56 122 1.0 1.0 0.00 0.00 0.00 94 1026.3
20260830062451 56 91 1.0 1.0 0.00 0.00 0.00 94 1026.3
20260830061946 56 112 1.0 1.0 0.00 0.00 0.00 94 1026.4
20260830061441 56 91 0.0 2.0 0.00 0.00 0.00 94 1026.4
20260830060938 56 56 0.0 1.0 0.00 0.00 0.00 94 1026.5
20260830060434 56 105 2.0 2.0 0.00 0.00 0.00 94 1026.5
20260830055929 56 73 0.0 0.0 0.00 0.00 0.00 93 1026.7
20260830055424 56 144 3.0 3.0 0.00 0.00 0.00 94 1026.7
20260830054919 56 115 0.0 0.0 0.00 0.00 0.00 94 1026.7
20260830054416 56 296 0.0 0.0 0.00 0.00 0.00 94 1026.7
20260830053910 56 127 0.0 1.0 0.00 0.00 0.00 94 1026.7
20260830053401 55 115 3.0 3.0 0.00 0.00 0.00 95 1026.8
20260830052900 55 110 0.0 0.0 0.00 0.00 0.00 94 1026.5
20260830052355 55 62 0.0 0.0 0.00 0.00 0.00 94 1026.8
20260830051851 55 126 1.0 2.0 0.00 0.00 0.00 94 1026.9
20260830051346 55 126 1.0 2.0 0.00 0.00 0.00 94 1026.8
20260830050845 55 126 1.0 2.0 0.00 0.00 0.00 94 1026.7
20260830050340 56 30 0.0 2.0 0.00 0.00 0.00 94 1026.8
20260830045838 56 292 1.0 1.0 0.00 0.00 0.00 94 1026.9
20260830045333 56 266 0.0 1.0 0.00 0.00 0.00 94 1026.7
20260830044833 56 104 1.0 1.0 0.00 0.00 0.00 94 1026.7
20260830044329 56 349 1.0 1.0 0.00 0.00 0.00 94 1026.6
20260830043823 56 19 0.0 1.0 0.00 0.00 0.00 93 1026.6
20260830043318 57 81 0.0 1.0 0.00 0.00 0.00 93 1026.4
20260830042815 57 350 0.0 1.0 0.00 0.00 0.00 93 1026.5
20260830042310 57 21 1.0 2.0 0.00 0.00 0.00 93 1026.5
20260830041809 57 172 0.0 0.0 0.00 0.00 0.00 93 1026.4
20260830041303 57 188 0.0 0.0 0.00 0.00 0.00 94 1026.6
20260830040758 57 185 0.0 0.0 0.00 0.00 0.00 93 1026.5
20260830040255 57 181 0.0 0.0 0.00 0.00 0.00 93 1026.4
20260830035752 57 172 1.0 1.0 0.00 0.00 0.00 93 1026.6
20260830035247 57 114 0.0 0.0 0.00 0.00 0.00 93 1026.6